Helicity
27 25 22 39 40 54 52 46 46 37 25 36 65 166 184 102 121 67 52 85 126 106 55 40 41 60 73 77 80 89 92 96 96 93 87 93 102 102 101 98 97 98 97 95 76 72 67 62 58
31 29 37 54 70 60 48 67 47 32 23 58 139 176 147 72 118 96 126 136 108 121 75 57 64 78 86 82 88 93 96 94 95 95 81 85 96 98 96 94 94 96 96 88 83 73 64 61 58
33 38 41 74 88 68 56 79 104 58 34 91 91 127 87 51 97 95 99 181 122 121 88 78 83 90 91 95 107 111 112 110 115 117 113 110 103 98 94 110 120 118 103 122 106 90 85 83 80
37 39 60 71 54 56 49 98 60 84 79 80 50 68 22 94 84 126 153 198 143 136 101 99 89 91 111 120 117 117 113 118 133 151 131 125 123 133 135 135 126 134 129 116 116 114 115 119 119
55 61 58 54 50 62 65 80 25 68 93 75 60 68 72 99 115 190 207 217 138 119 112 115 107 128 137 128 126 127 152 170 179 172 140 129 125 127 127 128 121 114 108 103 107 109 113 122 123
62 67 64 49 51 56 79 51 48 88 137 94 69 92 65 88 148 216 213 205 136 126 140 133 130 148 142 127 119 156 182 188 174 145 142 141 141 131 120 112 103 96 92 87 81 81 86 90 95
64 74 55 55 53 67 83 7 43 72 124 82 54 54 29 64 166 223 216 192 149 147 164 155 160 151 166 145 153 186 198 174 147 147 144 147 141 129 118 106 100 93 92 92 95 92 95 102 111
83 76 60 42 50 60 89 8 63 75 89 89 60 9 29 112 242 223 215 213 158 164 155 156 150 159 140 159 166 186 173 149 138 138 141 144 136 124 116 109 111 103 104 103 107 113 111 110 121
101 82 59 60 48 66 75 72 76 97 103 94 79 75 68 243 274 259 266 245 214 182 161 165 150 140 161 167 172 173 167 149 147 131 123 112 98 102 115 121 121 119 118 118 114 110 109 92 111
107 99 47 61 78 67 63 49 59 56 101 111 113 167 151 253 303 308 292 259 235 232 195 161 159 149 157 166 180 157 133 112 109 109 122 115 107 108 111 122 142 129 102 101 96 99 96 93 87
111 107 82 87 83 73 42 45 52 75 116 76 111 235 208 204 249 246 239 214 220 245 222 176 165 156 161 160 169 183 147 140 142 138 126 117 101 89 88 77 73 68 82 61 68 76 82 100 93
103 84 88 80 108 105 48 20 42 68 79 135 128 161 166 175 215 208 235 257 275 237 218 198 171 172 185 192 179 204 187 156 152 132 121 102 100 95 89 83 82 82 73 69 65 58 70 86 101
79 62 96 88 93 109 100 50 44 41 71 143 109 143 126 156 175 186 202 220 266 256 257 212 190 193 202 224 217 213 214 188 166 150 128 108 107 100 96 93 84 78 70 65 56 57 64 76 89
98 73 56 63 62 82 87 80 97 62 109 130 124 111 119 144 185 234 219 221 245 239 257 243 226 216 213 232 243 236 240 228 208 173 153 143 128 106 92 86 85 85 81 63 56 64 63 66 78
86 82 71 32 56 68 48 132 140 86 101 99 103 103 105 112 170 188 212 211 262 225 276 274 274 241 248 249 273 274 252 250 239 212 183 165 139 123 103 91 95 93 79 69 51 55 63 76 91
90 77 88 77 76 71 51 88 86 133 122 92 100 120 113 117 139 159 201 231 252 273 292 277 279 275 271 273 285 310 281 275 267 238 205 184 155 133 131 120 109 87 77 70 77 72 78 89 94
122 110 81 41 31 70 94 122 129 115 121 115 100 98 117 139 156 165 204 227 256 276 320 309 292 308 305 328 332 346 316 306 290 259 223 192 177 158 141 121 102 87 80 82 72 92 82 89 92
97 81 82 66 86 148 163 152 158 134 114 112 110 116 110 104 82 191 218 239 258 278 307 326 336 360 346 379 387 410 377 351 310 279 243 203 185 170 147 127 116 111 105 92 87 95 100 98 87
86 80 70 61 46 94 100 90 81 106 72 103 116 114 118 104 120 168 241 283 284 296 344 376 413 402 442 450 479 447 408 381 346 304 259 220 188 172 163 148 137 125 123 97 71 73 114 137 92
118 92 68 50 50 42 71 56 56 74 117 118 135 144 132 120 182 237 285 291 315 345 377 401 392 420 438 432 409 410 390 364 321 307 282 237 208 184 167 148 141 128 110 99 90 72 65 116 128
123 118 94 88 69 44 41 8 32 48 61 107 92 107 121 132 168 246 304 320 351 391 445 444 434 426 418 414 419 453 478 461 425 357 319 258 214 188 170 163 152 135 106 108 106 104 98 80 120
88 103 79 86 85 17 113 -16 12 27 37 99 92 114 132 124 141 197 273 345 420 505 526 480 510 456 414 414 473 472 485 450 352 323 293 262 226 213 185 160 151 141 113 118 111 106 118 89 80
166 104 95 115 98 50 34 43 17 38 18 23 46 92 80 101 150 204 277 357 417 523 539 522 495 440 440 446 479 481 405 368 354 339 323 296 254 219 187 169 154 137 130 126 118 139 147 112 87
161 202 165 145 135 51 52 72 -54 5 3 32 107 72 66 98 163 205 224 249 297 476 521 525 489 455 453 487 480 426 405 421 429 388 350 302 276 241 201 184 167 152 140 130 145 157 144 107 100
214 291 250 187 212 147 134 73 95 109 113 214 213 227 247 194 113 164 244 297 294 391 518 533 493 465 475 455 437 388 376 375 343 342 324 307 288 252 220 201 175 146 141 149 161 150 138 119 122
79 160 271 306 270 168 183 123 135 238 129 147 157 132 122 102 31 59 167 287 355 397 441 558 590 584 539 508 424 412 365 396 338 301 312 296 273 260 234 217 182 162 157 162 162 151 144 131 118
241 235 160 139 127 133 138 146 211 297 331 295 263 276 270 226 263 189 94 213 276 359 448 508 572 578 568 504 455 412 384 359 324 292 290 309 302 292 252 227 195 169 172 170 154 151 150 129 119
433 293 310 344 278 289 167 90 134 301 364 324 322 216 131 129 140 124 21 88 134 197 268 368 475 580 554 488 471 442 387 339 317 311 313 305 330 325 308 232 205 168 165 163 160 164 153 135 131
306 414 429 420 433 360 267 192 206 338 378 371 286 212 132 88 49 40 32 36 51 116 181 259 384 506 515 504 449 409 395 356 373 325 321 380 382 309 254 236 195 174 174 159 172 168 149 158 159
8 92 94 316 379 352 363 285 64 223 242 168 76 32 84 118 59 -21 -66 -7 92 140 156 218 279 395 446 454 450 402 398 367 349 391 424 400 326 288 268 218 201 165 172 154 145 159 166 175 168
Wind_Speed
37 34 31 32 26 26 22 13 17 10 9 12 5 7 10 11 7 18 21 21 31 31 29 30 33 32 32 32 32 32 32 32 31 31 32 32 32 33 34 34 35 36 37 38 38 40 42 43 44
34 32 33 32 28 27 23 17 14 7 17 14 7 6 2 10 20 18 19 21 27 27 28 29 31 30 29 29 29 29 30 31 31 31 31 31 32 33 34 35 35 36 37 38 39 41 42 43 44
33 35 36 32 30 29 25 19 33 23 7 8 8 17 10 9 12 11 18 24 25 24 25 27 28 27 27 26 27 27 27 28 29 29 30 32 32 33 34 35 36 37 38 39 40 42 43 44 45
34 35 35 37 34 36 32 36 33 15 13 9 8 8 15 23 8 8 19 21 21 21 22 24 25 24 24 24 25 26 25 27 28 28 29 30 31 33 34 35 37 38 39 40 41 43 44 45 46
36 35 40 40 42 41 43 46 24 8 14 9 6 9 10 15 9 11 14 17 21 20 21 21 21 20 21 23 24 24 24 25 28 28 28 29 31 33 35 36 37 38 39 40 42 44 45 46 48
35 35 42 45 45 45 47 42 24 19 20 19 17 7 13 7 10 8 11 17 19 18 17 16 17 18 20 21 23 23 22 23 26 27 28 29 30 33 34 35 36 38 39 40 43 44 46 47 49
36 38 46 46 52 49 42 29 26 21 23 21 14 13 12 3 6 8 12 17 16 13 14 13 14 17 19 21 21 22 22 22 23 25 26 27 29 32 33 34 36 37 39 41 43 45 46 47 49
32 36 43 42 50 48 37 27 32 27 30 19 11 20 20 4 7 10 11 11 10 9 10 10 11 13 16 19 20 21 20 20 21 23 24 25 28 31 33 34 36 38 39 42 43 45 46 47 49
31 43 47 46 45 45 35 41 36 34 31 31 26 30 23 8 10 11 9 4 7 6 8 7 8 10 13 16 18 19 19 19 20 21 22 24 27 30 33 35 36 38 40 42 44 45 46 46 49
38 45 47 41 37 46 50 52 45 37 35 37 39 35 10 7 13 17 14 14 12 12 10 9 7 7 9 12 14 15 15 16 17 18 20 23 26 29 32 34 37 38 40 42 44 46 47 48 49
43 52 47 46 44 42 48 51 39 41 47 31 29 29 17 14 15 17 16 16 15 15 10 8 4 4 7 9 10 12 13 14 16 18 20 22 25 29 31 34 36 38 41 43 45 47 49 50 51
56 50 51 54 51 56 56 47 48 44 52 48 38 23 21 21 22 22 19 18 15 15 12 7 3 1 6 8 10 10 10 11 14 17 19 21 25 29 31 33 36 39 41 43 45 47 48 50 51
59 62 57 55 57 67 62 62 55 51 43 50 32 21 24 24 24 21 18 16 15 14 12 10 7 2 3 7 9 9 8 9 12 15 19 22 24 28 31 34 36 39 42 44 45 47 49 50 51
56 62 69 65 64 65 66 71 55 51 40 39 32 28 26 26 27 24 23 23 22 17 15 12 9 5 2 6 7 9 9 8 11 16 19 22 24 27 31 34 37 39 42 44 45 47 48 49 49
59 72 76 65 55 53 57 64 58 55 43 45 35 34 30 27 28 31 27 26 24 19 15 15 12 9 6 6 8 10 10 10 12 15 19 22 24 26 29 33 37 40 41 43 44 46 47 48 49
66 62 70 46 46 51 43 69 60 51 49 50 46 39 33 31 31 30 29 28 26 23 20 17 15 13 10 9 9 10 11 12 13 15 18 21 24 26 30 33 37 39 41 43 46 48 50 50 51
52 67 64 69 46 51 48 63 51 41 44 54 52 49 42 35 34 31 31 32 30 27 24 22 19 17 13 10 11 12 12 14 14 15 17 20 23 26 29 32 35 38 40 43 45 49 50 53 53
59 58 59 61 44 47 63 70 74 63 54 58 55 50 47 42 37 34 35 35 33 29 27 25 22 19 16 14 13 14 15 15 15 15 17 18 22 25 27 30 34 37 40 42 45 49 53 54 52
56 62 69 66 68 74 81 83 69 71 55 57 58 55 53 47 41 37 36 36 35 33 33 29 27 23 21 19 18 18 19 17 16 16 15 18 21 23 27 30 33 36 40 42 44 48 54 58 52
54 64 75 80 72 61 76 79 72 60 56 49 52 52 47 46 42 39 40 41 41 39 37 34 31 27 24 21 20 22 16 19 17 16 16 17 19 22 25 28 31 34 38 43 47 50 51 55 58
59 63 70 71 82 67 78 88 62 54 45 48 43 38 36 32 30 31 35 41 43 44 42 39 35 32 28 24 21 18 20 18 22 20 19 16 18 21 23 26 29 34 37 42 46 51 53 53 56
66 59 66 66 66 75 54 89 79 64 58 48 39 38 31 34 32 32 34 37 45 46 43 42 39 37 32 28 26 26 25 26 23 20 17 16 17 19 22 24 28 33 36 39 45 49 52 51 51
63 53 60 63 69 79 67 77 73 58 65 68 63 46 37 30 31 32 36 40 42 42 46 45 41 40 35 32 30 29 28 26 19 18 15 16 18 19 20 24 27 31 35 39 42 47 50 50 50
54 53 55 58 65 85 75 63 83 64 54 52 48 52 54 51 39 35 36 34 38 42 46 48 46 43 39 36 33 33 31 26 23 21 20 19 19 20 20 22 25 29 32 36 40 45 47 48 47
54 56 68 73 69 86 60 64 79 69 68 54 54 52 54 56 51 42 33 30 34 39 45 50 50 48 43 41 38 36 33 30 28 25 23 20 19 19 17 18 23 27 29 32 38 41 44 46 47
75 67 75 79 77 82 67 78 65 40 37 45 48 52 54 57 60 51 41 35 32 35 42 48 52 52 48 45 42 39 36 33 30 27 24 22 19 16 15 18 21 23 25 31 35 39 43 44 45
63 71 76 86 94 104 91 85 71 68 64 63 61 63 66 70 72 69 53 42 38 35 36 44 50 51 50 48 45 42 39 36 33 28 25 22 19 16 18 19 17 18 21 27 32 38 42 43 44
47 52 64 60 80 88 83 76 63 48 48 56 62 65 65 66 67 66 54 47 43 39 37 40 47 51 50 49 48 46 43 39 34 31 30 26 21 20 17 14 15 16 19 24 32 36 39 41 43
63 60 57 60 62 78 92 78 40 43 52 64 65 68 70 69 70 68 58 48 43 41 40 40 43 49 51 50 49 47 45 40 37 36 31 27 21 20 13 12 12 15 19 23 29 33 36 40 43
61 61 51 65 65 65 75 82 33 43 70 76 77 78 79 78 78 71 59 49 44 39 37 39 41 44 48 49 48 48 44 40 39 36 32 28 23 14 10 9 12 17 19 24 29 32 36 39 41
Wind_Direction
333 339 341 326 333 334 328 349 343 357 10 338 41 133 146 359 36 357 48 74 108 105 98 96 95 87 81 75 70 65 61 56 49 42 40 38 28 23 18 13 8 9 12 13 17 13 11 11 10
335 337 336 324 323 318 327 343 339 2 333 5 19 339 357 322 323 10 55 87 104 101 98 96 93 85 79 71 64 59 59 54 48 42 39 34 32 25 20 17 17 14 11 10 8 7 6 4 2
338 333 320 318 318 311 319 331 318 321 17 33 0 314 314 342 343 44 57 96 102 96 96 93 92 85 77 68 60 51 45 42 41 34 30 29 29 24 22 19 15 10 11 10 7 5 3 3 2
329 326 323 309 309 309 306 310 316 324 315 323 345 357 321 304 345 22 88 98 97 91 90 89 88 81 70 61 54 50 41 42 40 28 24 20 20 21 17 17 16 14 9 10 8 6 5 3 360
331 322 310 307 303 305 302 301 312 302 292 276 296 330 349 318 7 83 94 102 107 94 88 85 80 69 60 56 52 49 42 40 37 30 25 27 27 25 22 20 16 13 11 8 7 6 2 1 360
322 320 306 304 302 304 302 308 307 296 287 277 285 313 328 3 90 74 101 110 111 102 88 78 72 65 55 52 55 52 42 37 33 36 32 32 29 27 23 18 14 12 9 7 8 8 7 8 6
319 312 303 302 298 302 305 322 307 297 285 273 302 290 326 86 79 89 104 113 113 101 96 79 66 62 53 53 52 49 42 37 35 35 35 31 26 22 19 14 12 8 5 3 5 7 7 6 4
325 317 307 305 298 301 307 316 307 297 291 298 275 287 294 223 113 107 109 112 113 106 104 90 73 66 59 52 45 44 41 42 40 35 29 26 23 20 13 10 5 2 1 1 2 4 5 4 1
323 306 302 302 301 303 305 306 312 305 289 282 282 289 302 156 136 128 126 125 137 124 120 100 76 67 62 54 45 37 40 39 36 30 26 15 14 13 11 9 6 4 3 2 1 1 360 1 0
305 301 301 306 307 303 301 299 302 303 292 279 277 286 271 177 170 166 161 156 159 151 136 119 95 67 44 29 39 26 22 17 20 24 21 14 13 11 11 8 5 3 1 1 0 359 359 0 0
304 297 300 301 303 308 306 301 302 297 290 282 265 269 247 222 198 189 177 168 165 152 143 136 108 32 17 17 19 22 11 19 23 19 14 15 9 4 2 1 358 357 354 355 356 357 358 359 359
298 300 298 298 298 298 299 303 297 289 291 293 285 254 234 220 210 202 198 182 181 172 166 165 156 28 349 353 351 8 21 14 20 27 17 7 360 358 358 358 357 354 352 354 355 356 358 360 0
296 296 298 300 296 291 293 290 293 291 290 292 290 262 235 227 219 227 222 203 205 200 197 185 174 187 336 335 338 344 0 8 10 7 6 1 357 356 355 355 354 353 352 352 354 356 357 359 0
301 298 294 297 296 292 288 284 288 292 293 290 283 266 248 230 226 239 233 221 214 213 211 201 199 203 249 305 316 323 331 348 351 349 352 356 357 357 354 353 353 352 351 352 355 356 358 360 1
300 296 294 296 299 297 290 283 281 286 287 283 280 274 261 244 237 231 232 231 221 228 216 215 211 218 238 271 292 304 314 326 335 343 346 349 353 357 356 351 351 352 354 355 357 359 1 1 1
296 299 293 302 302 302 294 287 291 286 280 280 278 275 265 253 246 245 237 238 232 233 229 227 226 216 232 249 276 292 300 312 325 339 344 347 351 355 355 352 352 355 356 357 358 358 358 359 357
296 291 292 294 304 299 290 292 298 299 290 283 280 276 272 265 260 245 242 241 235 234 232 229 226 217 231 245 270 284 293 304 316 330 338 342 347 350 352 354 354 355 357 358 359 359 358 355 355
291 292 294 293 304 301 291 289 288 292 289 286 283 277 273 268 252 253 247 245 239 236 233 231 226 226 231 246 265 280 286 295 306 319 329 336 341 348 352 353 353 354 357 360 1 358 359 356 356
292 291 289 291 292 292 288 288 291 291 290 287 284 280 274 267 269 260 248 244 242 239 235 228 227 223 229 237 249 267 273 281 294 309 321 328 336 343 347 349 352 355 355 356 357 357 356 357 358
288 288 287 287 291 298 293 292 293 293 292 287 287 282 277 275 268 257 250 245 237 235 233 231 228 222 229 236 250 271 261 282 287 298 311 323 332 337 342 347 351 354 354 355 355 353 353 357 357
284 285 288 290 289 297 295 289 297 298 294 292 286 278 276 264 251 250 245 240 238 231 225 222 225 225 229 234 248 259 277 279 282 283 295 310 322 331 340 347 350 350 352 352 353 354 354 352 357
283 286 288 290 294 291 304 289 289 299 299 297 293 287 269 262 256 253 243 234 226 225 226 223 225 224 230 227 235 231 250 259 266 272 286 299 314 327 336 343 347 348 350 353 353 356 356 356 354
284 289 288 289 289 290 291 292 293 301 297 297 297 294 287 272 262 249 244 242 245 242 230 230 228 229 227 227 234 236 252 265 260 266 267 288 305 320 329 336 343 346 351 351 355 356 358 359 356
288 287 288 289 290 283 286 288 292 297 303 304 309 305 297 292 287 279 271 259 245 244 238 234 230 230 233 231 233 235 243 252 252 254 261 276 292 306 319 331 341 344 347 350 355 357 358 357 359
280 284 283 281 279 280 292 287 286 297 299 306 307 312 314 306 300 295 283 267 253 238 232 233 233 235 235 233 236 238 242 244 244 245 255 261 277 292 308 327 334 338 347 354 356 356 357 355 357
271 273 275 280 278 284 291 283 289 304 323 322 323 319 318 319 311 303 294 282 269 255 243 238 233 235 234 233 235 240 241 246 249 245 252 261 270 285 300 318 330 341 349 352 355 356 353 354 355
280 268 278 273 276 279 278 281 285 292 299 305 311 312 313 312 312 305 297 290 282 272 257 246 240 239 237 236 239 241 242 243 246 246 249 256 268 279 295 311 335 347 352 353 353 352 349 353 354
291 289 277 273 275 272 278 280 282 295 306 314 313 314 316 317 317 317 310 299 291 283 273 261 249 242 238 238 240 241 241 242 243 244 248 253 261 274 289 310 329 342 351 350 348 348 351 351 352
288 284 284 283 281 278 274 278 286 299 309 313 316 317 318 318 318 317 316 310 300 292 281 270 257 246 240 238 240 241 242 241 243 246 247 251 260 274 282 302 319 332 340 344 345 346 350 350 350
284 284 288 282 283 284 281 277 274 299 308 310 307 311 312 312 312 312 313 315 309 304 293 275 263 252 243 239 237 238 240 241 245 247 247 250 260 258 276 292 317 325 336 338 337 341 346 347 347